ENT8RJ LICA-EPKT

Flight info

Callsign ENT8RJ
Flight time N/A
Altitude 40000
Route CRN DCT CRAYE/N0451F390 DCT PINUK DCT KOFER DCT PARAK/N0454F400 DCT REDSI/N0449F390 DCT MEBAN
Aircraft B738/M-SDFGHIJ1RWXY/EB1

Departure

Time 2026-04-30 22:00
Airport Lamezia Terme Sant'Eufemia International Airport (LICA)

Arrival

Time N/A
Airport Katowice Wojciech Korfanty International Airport (EPKT)
Time Latitude Longitude Altitude Speed Heading
2026-04-30 21:37 38.90857 16.24604 31 ft 0 kts 53°
2026-04-30 21:52 38.90859 16.24615 31 ft 2 kts 91°
2026-04-30 21:52 38.90838 16.24622 31 ft 6 kts 189°
2026-04-30 21:53 38.90787 16.24587 31 ft 6 kts 221°
2026-04-30 21:53 38.90787 16.24542 31 ft 6 kts 301°
2026-04-30 21:53 38.90804 16.24498 30 ft 6 kts 286°
2026-04-30 21:53 38.90815 16.24417 31 ft 14 kts 278°
2026-04-30 21:54 38.90832 16.24271 31 ft 20 kts 278°
2026-04-30 21:54 38.90855 16.24077 30 ft 23 kts 279°
2026-04-30 21:54 38.90876 16.23896 31 ft 19 kts 278°
2026-04-30 21:54 38.90828 16.23773 31 ft 16 kts 238°
2026-04-30 21:55 38.90834 16.23632 31 ft 16 kts 279°
2026-04-30 21:55 38.90850 16.23490 31 ft 17 kts 277°
2026-04-30 21:55 38.90871 16.23312 29 ft 23 kts 278°
2026-04-30 21:55 38.90866 16.23109 29 ft 23 kts 252°
2026-04-30 21:56 38.90811 16.22979 31 ft 0 kts 232°
2026-04-30 21:58 38.90799 16.22959 32 ft 7 kts 232°
2026-04-30 21:58 38.90731 16.22915 32 ft 16 kts 170°
2026-04-30 21:59 38.90680 16.23037 31 ft 15 kts 99°
2026-04-30 21:59 38.90656 16.23239 37 ft 49 kts 98°
2026-04-30 21:59 38.90568 16.23995 29 ft 120 kts 98°
2026-04-30 22:00 38.90245 16.26717 862 ft 164 kts 96°
2026-04-30 22:00 38.89922 16.29898 2033 ft 197 kts 96°
2026-04-30 22:00 38.89732 16.31713 2454 ft 214 kts 96°
2026-04-30 22:01 38.89542 16.33693 2794 ft 232 kts 96°
2026-04-30 22:01 38.89333 16.35721 3549 ft 231 kts 97°
2026-04-30 22:01 38.89081 16.37818 4055 ft 251 kts 99°
2026-04-30 22:01 38.88759 16.40110 4587 ft 266 kts 99°
2026-04-30 22:02 38.88430 16.42496 5313 ft 275 kts 99°
2026-04-30 22:02 38.88113 16.44936 6137 ft 280 kts 98°
2026-04-30 22:02 38.87805 16.47434 6879 ft 287 kts 98°
2026-04-30 22:02 38.87499 16.49985 7621 ft 292 kts 97°
2026-04-30 22:03 38.87190 16.52590 8385 ft 297 kts 97°
2026-04-30 22:03 38.86910 16.55249 9105 ft 304 kts 90°
2026-04-30 22:03 38.87249 16.57911 9861 ft 303 kts 70°
2026-04-30 22:03 38.87878 16.60508 10538 ft 310 kts 68°
2026-04-30 22:04 38.88575 16.63244 10728 ft 335 kts 68°
2026-04-30 22:04 38.89325 16.66179 10977 ft 355 kts 69°
2026-04-30 22:04 38.90874 16.72369 12194 ft 370 kts 69°
2026-04-30 22:05 38.91642 16.75494 12945 ft 373 kts 69°
2026-04-30 22:05 38.92433 16.78727 13738 ft 377 kts 69°
2026-04-30 22:05 38.93224 16.81968 14439 ft 382 kts 69°
2026-04-30 22:05 38.94023 16.85246 15097 ft 388 kts 69°
2026-04-30 22:06 38.94826 16.88542 15680 ft 395 kts 69°
2026-04-30 22:06 38.96479 16.95351 17095 ft 403 kts 68°
2026-04-30 22:06 38.97323 16.98828 17753 ft 409 kts 68°
2026-04-30 22:07 38.98174 17.02339 18401 ft 414 kts 68°
2026-04-30 22:07 38.99375 17.05688 18928 ft 410 kts 49°
2026-04-30 22:07 39.01316 17.08297 19527 ft 400 kts 31°
2026-04-30 22:07 39.03680 17.10051 20137 ft 389 kts 14°
2026-04-30 22:08 39.06245 17.11165 20748 ft 389 kts 10°
2026-04-30 22:08 39.08842 17.12188 21350 ft 392 kts
2026-04-30 22:08 39.11458 17.13193 21917 ft 395 kts
2026-04-30 22:08 39.14106 17.14213 22513 ft 398 kts
2026-04-30 22:09 39.16776 17.15253 23060 ft 402 kts
2026-04-30 22:09 39.19464 17.16314 23618 ft 406 kts
2026-04-30 22:09 39.22181 17.17398 24088 ft 409 kts
2026-04-30 22:09 39.24908 17.18493 24535 ft 413 kts
2026-04-30 22:10 39.27664 17.19606 24989 ft 416 kts
2026-04-30 22:10 39.30434 17.20728 25437 ft 419 kts
2026-04-30 22:10 39.33227 17.21861 25886 ft 421 kts
2026-04-30 22:10 39.36029 17.22999 26319 ft 424 kts
2026-04-30 22:11 39.41702 17.25305 27158 ft 429 kts
2026-04-30 22:11 39.44521 17.26452 27552 ft 432 kts
2026-04-30 22:11 39.47398 17.27623 27949 ft 435 kts
2026-04-30 22:12 39.50290 17.28802 28336 ft 437 kts
2026-04-30 22:12 39.53205 17.29990 28722 ft 440 kts
2026-04-30 22:12 39.56126 17.31183 29098 ft 442 kts
2026-04-30 22:12 39.59073 17.32387 29462 ft 445 kts
2026-04-30 22:13 39.61069 17.33203 29702 ft 446 kts
2026-04-30 22:13 39.64030 17.34415 30054 ft 449 kts
2026-04-30 22:13 39.67017 17.35639 30359 ft 451 kts
2026-04-30 22:13 39.70021 17.36870 30627 ft 453 kts
2026-04-30 22:14 39.73041 17.38110 30937 ft 455 kts
2026-04-30 22:14 39.76049 17.39347 31321 ft 454 kts
2026-04-30 22:14 39.79053 17.40586 31772 ft 451 kts
2026-04-30 22:14 39.82038 17.41818 32203 ft 449 kts
2026-04-30 22:15 39.85014 17.43045 32588 ft 448 kts
2026-04-30 22:15 39.87987 17.44271 32941 ft 448 kts
2026-04-30 22:15 39.90956 17.45495 33319 ft 447 kts
2026-04-30 22:15 39.93919 17.46718 33706 ft 446 kts
2026-04-30 22:16 39.96833 17.47922 34078 ft 445 kts
2026-04-30 22:16 39.99778 17.49140 34376 ft 445 kts
2026-04-30 22:17 40.08671 17.52822 35117 ft 446 kts
2026-04-30 22:17 40.11625 17.54048 35391 ft 446 kts
2026-04-30 22:17 40.17551 17.56512 35887 ft 447 kts
2026-04-30 22:18 40.20477 17.57730 36137 ft 447 kts
2026-04-30 22:18 40.26398 17.60199 36642 ft 446 kts 10°
2026-04-30 22:19 40.32329 17.62676 37118 ft 447 kts 10°
2026-04-30 22:19 40.35284 17.63912 37359 ft 447 kts 10°
2026-04-30 22:19 40.41209 17.66394 37844 ft 446 kts 10°
2026-04-30 22:20 40.44165 17.67634 38088 ft 446 kts 11°
2026-04-30 22:20 40.50066 17.70113 38555 ft 445 kts 11°
2026-04-30 22:20 40.53022 17.71356 38779 ft 445 kts 11°
2026-04-30 22:21 40.55969 17.72596 38932 ft 445 kts 11°
2026-04-30 22:21 40.58921 17.73839 39083 ft 445 kts 11°
2026-04-30 22:21 40.64832 17.76331 39155 ft 448 kts 11°
2026-04-30 22:22 40.70730 17.78826 39159 ft 446 kts 11°
2026-04-30 22:22 40.76630 17.81327 39160 ft 444 kts 11°
2026-04-30 22:23 40.82512 17.83823 39165 ft 442 kts 11°
2026-04-30 22:23 40.88370 17.86313 39168 ft 441 kts 11°
2026-04-30 22:24 40.94174 17.88783 39172 ft 441 kts 11°
2026-04-30 22:24 41.00012 17.91274 39177 ft 441 kts 11°
2026-04-30 22:25 41.05871 17.93777 39183 ft 442 kts 11°
2026-04-30 22:25 41.11745 17.96292 39185 ft 443 kts 11°
2026-04-30 22:26 41.20577 18.00084 39190 ft 445 kts 12°
2026-04-30 22:27 41.26477 18.02623 39186 ft 447 kts 12°
2026-04-30 22:27 41.35358 18.06454 39186 ft 448 kts 12°
2026-04-30 22:28 41.44235 18.10295 39184 ft 449 kts 12°
2026-04-30 22:29 41.52713 18.15824 39178 ft 465 kts 34°
2026-04-30 22:29 41.55129 18.18739 39193 ft 468 kts 38°
2026-04-30 22:31 41.71503 18.39793 39190 ft 467 kts 38°
2026-04-30 22:32 41.83258 18.54776 39197 ft 466 kts 38°
2026-04-30 22:33 41.96012 18.67416 39187 ft 447 kts 12°
2026-04-30 22:35 42.10965 18.72141 39198 ft 443 kts
2026-04-30 22:36 42.26045 18.76879 39210 ft 446 kts
2026-04-30 22:37 42.38159 18.80735 39219 ft 448 kts
2026-04-30 22:38 42.50289 18.84608 39210 ft 447 kts
2026-04-30 22:39 42.59368 18.87518 39223 ft 446 kts
2026-04-30 22:40 42.77392 18.93319 39249 ft 443 kts
2026-04-30 22:41 42.92376 18.98167 39271 ft 442 kts
2026-04-30 22:43 43.10373 19.04022 39308 ft 443 kts
2026-04-30 22:44 43.22369 19.07945 39324 ft 443 kts
2026-04-30 22:45 43.40308 19.13842 39338 ft 442 kts
2026-04-30 22:47 43.58330 19.19799 39350 ft 444 kts
2026-04-30 22:48 43.70322 19.23785 39357 ft 444 kts
2026-04-30 22:49 43.88280 19.29786 39350 ft 443 kts
2026-04-30 22:51 44.06254 19.35828 39345 ft 442 kts
2026-04-30 22:52 44.15238 19.38863 39345 ft 442 kts
2026-04-30 22:53 44.27147 19.42900 39341 ft 441 kts
2026-04-30 22:53 44.36105 19.45947 39336 ft 440 kts
2026-04-30 22:55 44.50987 19.51031 39348 ft 439 kts
2026-04-30 22:56 44.62820 19.55094 39346 ft 439 kts
2026-04-30 22:57 44.77653 19.60210 39351 ft 438 kts
2026-04-30 22:58 44.88497 19.63966 39352 ft 438 kts
2026-04-30 22:59 45.06308 19.70169 39357 ft 440 kts